Waukegan, IL

3:30 AM CST on February 07, 2016 (GMT -0600)
Waukegan Regional

Weather History for KUGN - December, 2013

Change the Weather History Date:

Wednesday, December 18, 2013

  Actual Average Record
Temperature  
Mean Temperature 24 °F -  
Max Temperature 36 °F 34 °F 54 °F (2002)
Min Temperature 12 °F 20 °F -2 °F (2000)
Degree Days  
Heating Degree Days 41 38  
Month to date heating degree days 800 650  
Since 1 July heating degree days 2312 2035  
Cooling Degree Days 0 0  
Month to date cooling degree days 0 0  
Year to date cooling degree days 590 564  
Moisture  
Dew Point 15 °F    
Average Humidity 58    
Maximum Humidity 78    
Minimum Humidity 38    
Precipitation  
Precipitation 0.00 in 0.07 in 0.58 in (2002)
Month to date precipitation 0.18 1.34  
Year to date precipitation 28.36 34.93  
Sea Level Pressure  
Sea Level Pressure 30.01 in    
Wind  
Wind Speed 11 mph (SSW)    
Max Wind Speed 25 mph    
Max Gust Speed 32 mph    
Visibility 10 miles    
Events      
T = Trace of Precipitation, MM = Missing Value Source: NWS Daily Summary

Daily Weather History Graph

Daily Weather History Graph

Search for Another Location

Airport or City:

Trip Planner

Search our weather history database for the weather conditions in past years. The results will help you decide how hot, cold, wet, or windy it might be!

Date:

Astronomy

Dec. 18, 2013 Rise Set
Actual Time 7:16 AM CST 4:20 PM CST
Civil Twilight 6:43 AM CST 4:52 PM CST
Nautical Twilight 6:08 AM CST 5:28 PM CST
Astronomical Twilight 5:34 AM CST 6:02 PM CST
Moon 5:53 PM CST (12/18) 7:53 AM CST (12/18)
Length of Visible Light 10h 08m
Length of Day
9h 04m
Full, 98% of the Moon is Illuminated
Dec 18
Full
Dec 25
Last Quarter
Jan 1
New
Jan 7
First Quarter
Jan 15
Full

Hourly Weather History & Observations

Time (CST) Temp. Windchill Dew Point Humidity Pressure Visibility Wind Dir Wind Speed Gust Speed Precip Events Conditions
12:52 AM 24.1 °F 18.2 °F 16.0 °F 71% 30.09 in 10.0 mi WSW 4.6 mph - N/A   Overcast
1:13 AM 24.8 °F 17.9 °F 15.8 °F 69% 30.05 in 10.0 mi Variable 5.8 mph - N/A   Overcast
1:52 AM 23.0 °F 15.8 °F 15.1 °F 72% 30.10 in 10.0 mi WSW 5.8 mph - N/A   Overcast
2:52 AM 19.9 °F 13.4 °F 12.0 °F 71% 30.13 in 10.0 mi Variable 4.6 mph - N/A   Clear
3:52 AM 17.1 °F 8.7 °F 9.0 °F 71% 30.13 in 10.0 mi West 5.8 mph - N/A   Clear
4:52 AM 15.1 °F 7.7 °F 8.1 °F 74% 30.16 in 10.0 mi Variable 4.6 mph - N/A   Clear
5:52 AM 12.9 °F 6.9 °F 6.1 °F 74% 30.16 in 10.0 mi Variable 3.5 mph - N/A   Clear
6:52 AM 12.0 °F - 6.1 °F 77% 30.14 in 10.0 mi Calm Calm - N/A   Clear
7:52 AM 15.1 °F 7.7 °F 9.0 °F 77% 30.17 in 10.0 mi WSW 4.6 mph - N/A   Overcast
8:52 AM 18.0 °F 11.1 °F 10.9 °F 74% 30.17 in 10.0 mi SW 4.6 mph - N/A   Overcast
9:52 AM 19.9 °F 10.1 °F 10.9 °F 68% 30.16 in 10.0 mi SSW 8.1 mph - N/A   Clear
10:52 AM 23.0 °F 13.1 °F 10.9 °F 60% 30.12 in 10.0 mi South 9.2 mph - N/A   Clear
11:52 AM 26.1 °F 16.8 °F 12.0 °F 55% 30.07 in 10.0 mi South 9.2 mph - N/A   Clear
12:52 PM 30.0 °F 20.5 °F 12.9 °F 49% 30.02 in 10.0 mi South 11.5 mph - N/A   Clear
1:52 PM 32.0 °F 21.2 °F 12.9 °F 45% 29.95 in 10.0 mi South 16.1 mph - 0.01 in   Clear
2:52 PM 35.1 °F 24.5 °F 12.0 °F 39% 29.88 in 10.0 mi South 18.4 mph 25.3 mph 0.02 in   Clear
3:52 PM 34.0 °F 23.8 °F 12.0 °F 40% 29.87 in 10.0 mi South 16.1 mph 28.8 mph 0.01 in   Clear
4:52 PM 32.0 °F 20.5 °F 14.0 °F 48% 29.88 in 10.0 mi SSW 18.4 mph 26.5 mph N/A   Clear
5:52 PM 32.0 °F 19.8 °F 18.0 °F 56% 29.87 in 10.0 mi SSW 20.7 mph 28.8 mph N/A   Clear
6:52 PM 30.0 °F 17.5 °F 21.0 °F 69% 29.87 in 10.0 mi SSW 19.6 mph - N/A   Clear
7:52 PM 30.9 °F 18.1 °F 21.9 °F 69% 29.85 in 10.0 mi SSW 21.9 mph 28.8 mph N/A   Clear
8:52 PM 30.9 °F 18.4 °F 23.0 °F 72% 29.84 in 10.0 mi SSW 20.7 mph - N/A   Clear
9:52 PM 30.9 °F 19.4 °F 24.1 °F 76% 29.83 in 10.0 mi SSW 17.3 mph - N/A   Clear
10:52 PM 35.1 °F 25.2 °F 26.1 °F 70% 29.82 in 10.0 mi SW 16.1 mph 24.2 mph N/A   Clear
11:52 PM 36.0 °F 28.0 °F 27.0 °F 70% 29.81 in 10.0 mi SW 11.5 mph 18.4 mph N/A   Clear